Weather History for K14-fa-1c Sea, Netherlands

Change the Weather History Date:

Sunday, December 22, 2013

  Actual Average Record
Temperature  
Mean Temperature 47 °F -  
Max Temperature 50 °F - - ()
Min Temperature 44 °F - - ()
Degree Days  
Heating Degree Days 18    
Moisture  
Dew Point 41 °F    
Average Humidity 71    
Maximum Humidity 87    
Minimum Humidity 54    
Precipitation  
Precipitation 0.00 in - - ()
Sea Level Pressure  
Sea Level Pressure 29.72 in    
Wind  
Wind Speed 36 mph ()    
Max Wind Speed 50 mph    
Max Gust Speed -    
Visibility 7.9 miles    
Events Rain    
T = Trace of Precipitation, MM = Missing Value Source: Averaged Metar Reports

Daily Weather History Graph

Daily Weather History Graph

Search for Another Location

Airport:

Trip Planner

Search our weather history database for the weather conditions in past years. The results will help you decide how hot, cold, wet, or windy it might be!

Date:

Astronomy

Dec. 22, 2013 Rise Set
Actual Time 8:58 AM CET 4:29 PM CET
Civil Twilight 8:15 AM CET 5:12 PM CET
Nautical Twilight 7:30 AM CET 5:57 PM CET
Astronomical Twilight 6:48 AM CET 6:40 PM CET
Moon 10:07 PM CET (12/22) 11:10 AM CET (12/22)
Length of Visible Light 8h 56m
Length of Day
7h 30m
Waning Gibbous, 79% of the Moon is Illuminated
Dec 22
Waning Gibbous
Dec 25
Last Quarter
Jan 1
New
Jan 8
First Quarter
Jan 16
Full

Hourly Weather History & Observations

Time (CET) Temp. Windchill Dew Point Humidity Pressure Visibility Wind Dir Wind Speed Gust Speed Precip Events Conditions
12:00 AM 52 °F - 47 °F 79% 29.69 in 5 mi SW 44.7 mph - - Rain Rain
12:25 AM 51.8 °F - 46.4 °F 82% 29.68 in 5.0 mi SW 44.9 mph - N/A   Scattered Clouds
12:55 AM 51.8 °F - 44.6 °F 76% 29.71 in 6.2 mi WSW 38.0 mph - N/A   Partly Cloudy
1:00 AM 51 °F - 45 °F 72% 29.72 in 7 mi WSW 31.3 mph - -   Partly Cloudy
1:25 AM 50.0 °F - 44.6 °F 82% 29.71 in 6.2 mi WSW 36.8 mph - N/A   Unknown
1:55 AM 50.0 °F - 42.8 °F 76% 29.71 in 6.2 mi WSW 40.3 mph - N/A   Unknown
2:00 AM 50 °F - 42 °F 67% 29.73 in 10 mi WSW 33.6 mph - -   Scattered Clouds
2:25 AM 50.0 °F - 42.8 °F 76% 29.71 in 6.2 mi WSW 40.3 mph - N/A   Unknown
2:55 AM 50.0 °F - 41.0 °F 71% 29.74 in 6.2 mi WSW 40.3 mph - N/A   Unknown
3:00 AM 50 °F - 41 °F 63% 29.75 in 11 mi SW 33.6 mph - -   Scattered Clouds
3:25 AM 50.0 °F - 41.0 °F 71% 29.74 in 6.2 mi WSW 38.0 mph - N/A   Unknown
3:55 AM 50.0 °F - 41.0 °F 71% 29.77 in 6.2 mi SW 38.0 mph - N/A   Partly Cloudy
4:00 AM 49 °F - 40 °F 62% 29.78 in 11 mi SW 33.6 mph - -   Scattered Clouds
4:25 AM 48.2 °F - 41.0 °F 76% 29.77 in 6.2 mi WSW 38.0 mph - N/A   Scattered Clouds
4:55 AM 48.2 °F - 41.0 °F 76% 29.77 in 6.2 mi WSW 36.8 mph - N/A   Partly Cloudy
5:00 AM 49 °F - 40 °F 61% 29.78 in 11 mi SW 31.3 mph - -   Partly Cloudy
5:25 AM 48.2 °F - 41.0 °F 76% 29.77 in 6.2 mi SW 36.8 mph - N/A   Unknown
5:55 AM 48.2 °F - 39.2 °F 71% 29.77 in 6.2 mi SW 38.0 mph - N/A   Unknown
6:00 AM 49 °F - 40 °F 63% 29.78 in 12 mi SW 31.3 mph - -   Scattered Clouds
6:25 AM 48.2 °F - 41.0 °F 76% 29.77 in 6.2 mi SW 39.1 mph - N/A   Unknown
6:55 AM 48.2 °F - 41.0 °F 76% 29.74 in 6.2 mi SW 38.0 mph - N/A   Unknown
7:00 AM 49 °F - 41 °F 65% 29.77 in 11 mi SW 31.3 mph - -   Partly Cloudy
7:25 AM 50.0 °F - 41.0 °F 71% 29.74 in 6.2 mi SW 34.5 mph - N/A   Unknown
7:55 AM 50.0 °F - 41.0 °F 71% 29.74 in 6.2 mi SW 40.3 mph - N/A   Partly Cloudy
8:00 AM 49 °F - 41 °F 66% 29.76 in 9 mi SW 33.6 mph - -   Scattered Clouds
8:25 AM 50.0 °F - 41.0 °F 71% 29.74 in 6.2 mi SW 39.1 mph - N/A   Partly Cloudy
8:55 AM 50.0 °F - 41.0 °F 71% 29.74 in 6.2 mi SSW 38.0 mph - N/A   Unknown
9:00 AM 50 °F - 42 °F 65% 29.74 in 8 mi SSW 31.3 mph - -   Scattered Clouds
9:25 AM 50.0 °F - 42.8 °F 76% 29.71 in 6.2 mi SSW 36.8 mph - N/A   Unknown
9:55 AM 50.0 °F - 42.8 °F 76% 29.71 in 6.2 mi SSW 39.1 mph - N/A   Partly Cloudy
10:00 AM 51 °F - 44 °F 69% 29.72 in 8 mi SSW 33.6 mph - -   Overcast
10:25 AM 51.8 °F - 46.4 °F 82% 29.68 in 6.2 mi SSW 38.0 mph - N/A   Scattered Clouds
10:55 AM 50.0 °F - 46.4 °F 87% 29.68 in 6.2 mi SSW 41.4 mph - N/A   Mostly Cloudy
11:00 AM 50 °F - 46 °F 83% 29.68 in 6 mi SSW 35.8 mph - - Rain Light Rain Showers
11:25 AM 50.0 °F - 46.4 °F 87% 29.65 in 3.7 mi SSW 41.4 mph - N/A Rain Light Rain Showers
11:55 AM 50.0 °F - 44.6 °F 82% 29.65 in 5.6 mi SW 49.5 mph - N/A   Light Drizzle
12:00 PM 50 °F - 44 °F 75% 29.66 in 7 mi SW 40.3 mph - - Rain Light Drizzle
12:25 PM 50.0 °F - 44.6 °F 82% 29.65 in 4.3 mi SW 40.3 mph - N/A Rain Light Rain
12:55 PM 50.0 °F - 42.8 °F 76% 29.65 in 6.2 mi SW 41.4 mph - N/A   Scattered Clouds
1:00 PM 49 °F - 42 °F 71% 29.67 in 8 mi SW 33.6 mph - - Rain Rain
1:25 PM 48.2 °F - 41.0 °F 76% 29.65 in 6.2 mi SW 40.3 mph - N/A   Partly Cloudy
1:55 PM 48.2 °F - 41.0 °F 76% 29.65 in 6.2 mi SW 40.3 mph - N/A   Unknown
2:00 PM 48 °F - 41 °F 69% 29.68 in 13 mi SW 33.6 mph - -   Overcast
2:25 PM 48.2 °F - 41.0 °F 76% 29.65 in 6.2 mi WSW 41.4 mph - N/A   Unknown
2:55 PM 48.2 °F - 41.0 °F 76% 29.68 in 6.2 mi WSW 39.1 mph - N/A   Unknown
3:00 PM 48 °F - 40 °F 67% 29.68 in 14 mi WSW 31.3 mph - -   Scattered Clouds
3:25 PM 48.2 °F - 41.0 °F 76% 29.68 in 6.2 mi WSW 38.0 mph - N/A   Unknown
3:55 PM 48.2 °F - 39.2 °F 71% 29.68 in 6.2 mi WSW 39.1 mph - N/A   Unknown
4:00 PM 48 °F - 40 °F 64% 29.70 in 16 mi WSW 33.6 mph - -   Scattered Clouds
4:25 PM 48.2 °F - 39.2 °F 71% 29.68 in 6.2 mi WSW 39.1 mph - N/A   Unknown
4:55 PM 48.2 °F - 37.4 °F 66% 29.68 in 6.2 mi WSW 40.3 mph - N/A   Unknown
5:00 PM 48 °F - 38 °F 57% 29.71 in 17 mi WSW 33.6 mph - -   Scattered Clouds
5:25 PM 48.2 °F - 37.4 °F 66% 29.71 in 6.2 mi WSW 40.3 mph - N/A   Unknown
5:55 PM 48.2 °F - 39.2 °F 71% 29.68 in 6.2 mi WSW 39.1 mph - N/A   Unknown
6:00 PM 48 °F - 38 °F 60% 29.71 in 18 mi WSW 33.6 mph - -   Scattered Clouds
6:25 PM 48.2 °F - 37.4 °F 66% 29.71 in 6.2 mi WSW 41.4 mph - N/A   Partly Cloudy
6:55 PM 48.2 °F - 35.6 °F 62% 29.71 in 6.2 mi West 40.3 mph - N/A   Partly Cloudy
7:00 PM 47 °F - 36 °F 54% 29.74 in 22 mi West 33.6 mph - -   Partly Cloudy
7:25 PM 48.2 °F - 39.2 °F 71% 29.71 in 6.2 mi WSW 38.0 mph - N/A   Partly Cloudy
7:55 PM 46.4 °F 35.8 °F 37.4 °F 71% 29.74 in 6.2 mi WSW 40.3 mph - N/A   Partly Cloudy
8:00 PM 47 °F - 36 °F 57% 29.75 in 19 mi WSW 33.6 mph - -   Scattered Clouds
8:25 PM 48.2 °F - 39.2 °F 71% 29.74 in 6.2 mi WSW 39.1 mph - N/A   Partly Cloudy
8:55 PM 46.4 °F 35.7 °F 37.4 °F 71% 29.74 in 6.2 mi WSW 41.4 mph - N/A   Partly Cloudy
9:00 PM 47 °F - 37 °F 59% 29.76 in 15 mi WSW 35.8 mph - -   Overcast
9:25 PM 46.4 °F 35.5 °F 35.6 °F 66% 29.74 in 6.2 mi West 43.7 mph - N/A   Partly Cloudy
9:55 PM 46.4 °F 35.5 °F 35.6 °F 66% 29.74 in 6.2 mi West 43.7 mph - N/A   Unknown
10:00 PM 46 °F - 36 °F 59% 29.77 in 16 mi West 38.0 mph - -   Scattered Clouds
10:25 PM 46.4 °F 35.5 °F 37.4 °F 71% 29.77 in 6.2 mi West 43.7 mph - N/A   Partly Cloudy
10:55 PM 44.6 °F 33.5 °F 37.4 °F 76% 29.77 in 6.2 mi West 39.1 mph - N/A   Partly Cloudy
11:00 PM 45 °F - 36 °F 62% 29.79 in 16 mi West 35.8 mph - -   Scattered Clouds
11:25 PM 44.6 °F 33.3 °F 35.6 °F 71% 29.77 in 6.2 mi West 40.3 mph - N/A   Partly Cloudy
11:55 PM 44.6 °F 33.3 °F 33.8 °F 66% 29.80 in 6.2 mi West 40.3 mph - N/A   Partly Cloudy